Regional Weather Roundup
Issued by NWS

Home | Current Version | Previous Version | Text Only | Print | Product List | Glossary Off
Versions: 1 2 3 4 5 6 7 8 9 10 11 12 13 14 15 16 17 18 19 20 21 22 23 24 25 26 27 28 29 30 31 32 33 34 35 36 37 38 39 40 41 42 43 44 45 46 47 48 49 50

000
ASUS43 KMKX 221711
RWRWI

WISCONSIN REGIONAL WEATHER ROUNDUP
NATIONAL WEATHER SERVICE MILWAUKEE/SULLIVAN WI
1200 PM CDT MON MAY 22 2017

NOTE: "FAIR" INDICATES FEW OR NO CLOUDS BELOW 12,000 FEET WITH NO
SIGNIFICANT WEATHER AND/OR OBSTRUCTIONS TO VISIBILITY.

WIZ001-002-006>008-014>016-023>028-221800-
NORTHWEST WISCONSIN

CITY           SKY/WX    TMP DP  RH WIND       PRES   REMARKS
SUPERIOR ARPT  NOT AVBL
ASHLAND        LGT RAIN  50  43  77 SW13      29.77S
HAYWARD        CLOUDY    50  41  71 W10       29.81R
SIREN          DRIZZLE   51  42  72 W12       29.83S
CUMBERLAND     CLOUDY    52  41  66 W10       29.82S
RICE LAKE      CLOUDY    55  41  61 W12G18    29.84S
CHETEK         CLOUDY    57  42  59 W9G18     29.82S
LADYSMITH      CLOUDY    56  45  65 W13       29.83S
EAU CLAIRE     PTSUNNY   61  43  51 W17       29.83S
MENOMONIE      MOSUNNY   60  43  53 SW13G21   29.84S
NEW RICHMOND   MOSUNNY   58  41  52 W14G22    29.84S
OSCEOLA        PTSUNNY   58  43  57 W9G20     29.86F
$$

WIZ003>005-009-010-017-018-221800-
NORTH CENTRAL WISCONSIN

CITY           SKY/WX    TMP DP  RH WIND       PRES   REMARKS
MANITOWISH WTR CLOUDY    48  44  85 SW8       29.78F
ARBOR VITAE    PTSUNNY   52  43  73 SW12G18   29.79S
WOODRUFF       PTSUNNY   52  43  73 SW12G18   29.79S
RHINELANDER    CLOUDY    54  41  61 W10G20    29.81F
EAGLE RIVER    CLOUDY    51  39  64 SW14G20   29.79S
LAND O LAKES   CLOUDY    51  40  66 W9        29.80S
PHILLIPS       CLOUDY    49  43  79 SW8       29.80S
TOMAHAWK       CLOUDY    53  40  61 W7        29.81F
MEDFORD        PTSUNNY   55  42  62 SW9G23    29.82S
MERRILL        CLOUDY    55  42  61 W15G23    29.83S
$$

WIZ029-030-035-036-043>047-221800-
CENTRAL WISCONSIN

CITY           SKY/WX    TMP DP  RH WIND       PRES   REMARKS
WAUSAU         PTSUNNY   58  42  55 W15G24    29.82F
MOSINEE        MOSUNNY   59  43  55 SW16G24   29.85F
MARSHFIELD     SUNNY     61  44  53 W14G23    29.83F
STEVENS POINT  PTSUNNY   59  40  50 SW13G22   29.85F
WAUPACA        MOSUNNY   64  43  45 SW12      29.87F
WAUTOMA        SUNNY     63  45  51 SW9G18    29.87F
WISC RAPIDS    SUNNY     63  44  50 W14G21    29.86F
CAMP DOUGLAS   MOSUNNY   64  46  52 W9        29.86F
$$

WIZ011>013-019>022-031-037>040-048>050-221800-
NORTHEAST WISCONSIN

CITY           SKY/WX    TMP DP  RH WIND       PRES   REMARKS
ANTIGO         PTSUNNY   54  43  65 W15G24    29.83F
SHAWANO        PTSUNNY   61  42  50 W12G18    29.85F
OCONTO         PTSUNNY   60  42  52 W18G26    29.84F
STURGEON BAY   PTSUNNY   57  44  62 W16G24    29.86S
GREEN BAY      PTSUNNY   61  46  57 SW15G21   29.87F
MANITOWOC      SUNNY     60  42  51 W17       29.89F
APPLETON       PTSUNNY   61  43  51 SW17      29.86F
CLINTONVILLE   CLOUDY    59  41  51 W9        29.85F
OSHKOSH        MOSUNNY   61  44  53 SW12G25   29.87F
$$

WIZ032>034-041-042-053>061-221800-
SOUTHWEST WISCONSIN

CITY           SKY/WX    TMP DP  RH WIND       PRES   REMARKS
LA CROSSE      SUNNY     66  48  52 S12       29.86F
SPARTA         SUNNY     63  46  54 W9        29.87F
VIROQUA        SUNNY     56  47  71 N13       29.90S
BOSCOBEL       LGT RAIN  55  50  83 S5        29.92F
PRAIRIE DU CHI LGT RAIN  54  48  81 SE5       29.90F
PLATTEVILLE    CLOUDY    59  52  77 SW12      29.95F
$$

WIZ056-057-062-063-064-067-068-221800-
SOUTH CENTRAL WISCONSIN

CITY           SKY/WX    TMP DP  RH WIND       PRES   REMARKS
REEDSBURG      MOSUNNY   59  47  64 SW15      29.90S
BARABOO/DELLS  MOSUNNY   59  46  61 SW15      29.90S
LONE ROCK      CLOUDY    55  48  77 W6        29.94S
MINERAL POINT  LGT RAIN  54  52  94 SW8       29.95F
MADISON        LGT RAIN  60  47  61 SW8G20    29.93S
MIDDLETON      CLOUDY    60  50  71 SW13      29.94R
WATERTOWN      PTSUNNY   64  48  57 SW14G20   29.92F
MONROE         CLOUDY    59  46  63 SW17      29.96S
JANESVILLE     PTSUNNY   64  48  55 SW16G22   29.95F
$$

WIZ051-052-058>065-066-070>072-221800-
SOUTHEAST WISCONSIN

CITY           SKY/WX    TMP DP  RH WIND       PRES   REMARKS
MILWAUKEE      MOSUNNY   66  44  45 W16G26    29.95F
WAUKESHA       MOSUNNY   61  45  55 SW17G23   29.95F
MILWAUKEE/TIMM MOSUNNY   63  43  48 W16G26    29.94F
RACINE         SUNNY     65  45  48 SW12G22   29.97S
KENOSHA        PTSUNNY   66  47  50 SW18      29.95F
FOND DU LAC    MOSUNNY   63  45  51 SW17G25   29.89F
SHEBOYGAN      PTSUNNY   62  47  57 SW18      29.90S
WEST BEND      MOSUNNY   61  45  55 SW14G22   29.91F
JUNEAU         MOSUNNY   61  48  62 SW16G24   29.92F
$$

LSZ147-162-221800-
LAKE SUPERIOR

STATION/POSITION TIME  TEMP    WIND        PRES    WAVE
                       AIR SEA DIR/SP/G            HT/PER
                 (UTC) (F)     (DEG/KT/KT) (MB)    (FT/S)
W MID LAKE BUOY  1650   40 37  230/ 10/ 12 1007.6R   2/ 5
DEVILS ISLAND    1700   45     240/ 18/ 21 1007.7R
SAXON HARBOR     1640   54     210/ 11/ 16 1007.8S
$$

LMZ867-665-643>646-221800-
LAKE MICHIGAN

STATION/POSITION TIME  TEMP    WIND        PRES    WAVE
                       AIR SEA DIR/SP/G            HT/PER
                 (UTC) (F)     (DEG/KT/KT) (MB)    (FT/S)
CHAMBERS ISLAND  1640   56     210/  7/ 14 1010.2S
N MID LAKE BUOY  1650   42 39  200/ 10/ 12 1011.5R   2/ 5
NORTHPORT PIER   1630   55     230/ 10/ 18 1010.5R
KEWAUNEE LAKESHO 1648   58     290/  9/ 16 1011.0F
SHEBOYGAN LAKESH 1700   60     230/ 15/ 18 1012.3F
PORT WASHINGTON  1640   64     230/ 11/ 20 1014.2S
ATWATER BUOY     1609   58     230/ 12/ 17 1013.9F
MILWAUKEE LAKESH 1650   61     250/ 15/ 21   N/A
S MID LAKE BUOY  1650   48 45  190/ 12/ 14 1015.7F   2/ 4
KENOSHA   LAKESH 1700   64     230/ 15/ 21 1014.2
$$

TC  - TEMPERATURE IN CELSIUS
VSB - VISIBILITY IN STATUTE MILES
WCI - WIND CHILL INDEX
HX  - HEAT INDEX




USA.gov is the U.S. government's official web portal to all federal, state and local government web resources and services.